Regional Weather Roundup
Issued by NWS Raleigh/Durham, NC

Home | Current Version | Previous Version | Text Only | Print | Product List | Glossary On
Versions: 1 2 3 4 5 6 7 8 9 10 11 12 13 14 15 16 17 18 19 20 21 22 23 24 25 26 27 28 29 30 31 32 33 34 35 36 37 38 39 40 41 42 43 44 45 46 47 48 49 50
000
ASUS42 KRAH 222310
RWRRAH
NORTH CAROLINA WEATHER ROUNDUP
NATIONAL WEATHER SERVICE RALEIGH NC
700 PM EDT MON SEP 22 2014

NOTE: "FAIR" INDICATES FEW OR NO CLOUDS BELOW 12,000 FEET WITH NO
SIGNIFICANT WEATHER AND/OR OBSTRUCTIONS TO VISIBILITY.

NCZ001-053-055-056-065-067-230000-
WESTERN NORTH CAROLINA

CITY           SKY/WX    TMP DP  RH WIND       PRES   REMARKS
ASHEVILLE      CLEAR     66  47  50 N13       30.14R
JEFFERSON      CLEAR     60  43  53 NW9       30.17R
HICKORY        PTCLDY    71  54  54 CALM      30.09R
RUTHERFORDTON  NOT AVBL
MOUNT AIRY     MOCLDY    67  52  57 N3        30.14R
$$

NCZ021-022-025-041-071-084-088-230000-
CENTRAL NORTH CAROLINA

CITY           SKY/WX    TMP DP  RH WIND       PRES   REMARKS
CHARLOTTE      MOCLDY    71  54  54 N6        30.09R
GREENSBORO     MOCLDY    71  52  50 NE3       30.09R
WINSTON-SALEM  MOCLDY    70  53  54 NE3       30.11R
RALEIGH-DURHAM MOCLDY    67  57  70 CALM      30.09R
FORT BRAGG     CLOUDY    71  56  60 N6        30.06R
FAYETTEVILLE   CLOUDY    73  55  53 N10       30.06R
$$

NCZ011-015-027-028-043-044-047-080-103-230000-
NORTHEASTERN NORTH CAROLINA

CITY           SKY/WX    TMP DP  RH WIND       PRES   REMARKS
ROANOKE RAPIDS FAIR      66  57  72 CALM      30.07R
ROCKY MT-WILSO PTCLDY    71  56  58 N7        30.07R
GREENVILLE     PTCLDY    70  61  73 CALM      30.07R
WASHINGTON     CLEAR     69  61  75 CALM      30.06R
ELIZABETH CITY NOT AVBL
MANTEO         PTCLDY    70  58  64 NE7       30.06R
CAPE HATTERAS  PTCLDY    69  61  75 NE6       30.04R
$$

NCZ078-087-090-091-093-098-101-230000-
SOUTHEASTERN NORTH CAROLINA

CITY           SKY/WX    TMP DP  RH WIND       PRES   REMARKS
LUMBERTON      LGT RAIN  72  64  76 CALM      30.05R
GOLDSBORO      CLOUDY    74  61  64 CALM      30.04R
KINSTON        CLOUDY    68  63  83 CALM      30.06R
KENANSVILLE    CLEAR     69  62  77 CALM      30.06R
NEW BERN       CLEAR     73  60  63 CALM      30.05R
CHERRY POINT   PTCLDY    75  61  61 NE3       30.05R
BEAUFORT       CLEAR     74  63  68 NE5       30.04R
JACKSONVILLE   MOCLDY    74  60  61 NE5       30.04R
WILMINGTON     MOCLDY    75  64  68 CALM      30.04R
$$



USA.gov is the U.S. government's official web portal to all federal, state and local government web resources and services.